Regional Weather Roundup
Issued by NWS

Home | Current Version | Previous Version | Graphics & Text | Print | Product List | Glossary On
Versions: 1 2 3 4 5 6 7 8 9 10 11 12 13 14 15 16 17 18 19 20 21 22 23 24 25 26 27 28 29 30 31 32 33 34 35 36 37 38 39 40 41 42 43 44 45 46 47 48 49 50
000
ASUS43 KLOT 281921
RWRIL

ILLINOIS REGIONAL WEATHER ROUNDUP
NATIONAL WEATHER SERVICE CHICAGO/ROMEOVILLE IL
200 PM CDT TUE JUL 28 2015

NOTE: "FAIR" INDICATES FEW OR NO CLOUDS BELOW 12,000 FEET WITH NO
SIGNIFICANT WEATHER AND/OR OBSTRUCTIONS TO VISIBILITY.

* THESE STATIONS ARE NOT UNDER NWS QUALITY CONTROL. THEY ALSO MAY NOT
  REPORT WEATHER SUCH AS PRECIPITATION OR FOG.

ILZ001-002-007-009-015-016-024-282000-
NORTHWEST ILLINOIS

CITY           SKY/WX    TMP DP  RH WIND       PRES   REMARKS
MOLINE         CLOUDY    79  71  76 N6        29.93F HX  82
STERLING*      CLOUDY    81  75  83 SE10      29.92F HX  86
SAVANNA*       CLOUDY    80  72  76 SE8       29.92F HX  85
$$

ILZ003-004-008-010-011-017-018-282000-
NORTH CENTRAL ILLINOIS

CITY           SKY/WX    TMP DP  RH WIND       PRES   REMARKS
ROCKFORD       CLOUDY    85  73  67 SW8       29.98F HX  91
FREEPORT*      LGT RAIN  77  74  90 S9        29.97F
ROCHELLE*      CLOUDY    82  74  78 S3        29.98F HX  88
DE KALB*         N/A    N/A N/A N/A MISG        N/A
PERU*          LGT RAIN  80  75  85 CALM      29.97F HX  85
$$

ILZ005-006-012>014-019>023-282000-
NORTHEAST ILLINOIS

CITY           SKY/WX    TMP DP  RH WIND       PRES   REMARKS
CHICAGO-OHARE  PTSUNNY   89  70  53 SW8       29.96F HX  94
CHICAGO-MIDWAY PTSUNNY   91  69  48 SW3       29.96F HX  96
AURORA         PTSUNNY   88  72  58 S8        29.98F HX  94
LANSING*       MOSUNNY   89  66  46 S9        29.97F HX  91
JOLIET*        MOSUNNY   87  74  64 SW3       29.97F HX  96
WAUKEGAN       SUNNY     82  68  62 SE9       29.98F HX  85
DUPAGE AIRPORT PTSUNNY   88  71  57 W10       29.98S HX  94
KANKAKEE*      MOSUNNY   90  75  61 SW6       29.98F HX 101
WHEELING       MOSUNNY   88  69  53 S8        29.97F HX  92
MORRIS*        MOSUNNY   87  74  66 S3        29.96F HX  96
ROMEOVILLE*    PTSUNNY   87  69  55 SW6       29.98F HX  91
NORTHERLY ISL    N/A     80  70  71 E8          N/A  HX  83
$$

LMZ740>746-282000-
SOUTHERN LAKE MICHIGAN

STATION/POSITION SKY/WX   TEMP    WIND        PRES    VSBY  WAVE
                          AIR SEA DIR/SP/G                  HT/PER
                          (F)     (DEG/KT/KT) (MB)    (MI)  (FT/S)
HARRISON CRIB              77      90/ 12/ 13   N/A
BURNHAM HARBOR             80      70/  5/  9   N/A
CALUMET HARBOR             77      40/  8/ 10   N/A
BURNS HARBOR               86     170/  7/ 11 1015.9S
MICHIGAN CITY              83     170/  6/ 11   N/A
MICHIGAN CITY 6N           82 77  150/  2/  4   N/A           0
ST. JOSEPH                 81 77  300/  4/  6   N/A           0
$$

ILZ025>027-034>036-040-047-049-050-058-095>099-282000-
WEST-CENTRAL ILLINOIS

CITY           SKY/WX    TMP DP  RH WIND       PRES   REMARKS
QUINCY         SUNNY     92  77  61 SW3       29.96S HX 105
GALESBURG*     PTSUNNY   86  78  75 E5        29.94F HX  98
MACOMB*        MOSUNNY   90  78  66 W3        29.96F HX 104
JACKSONVILLE*  SUNNY     92  80  69 N3        29.95F HX 110
PITTSFIELD*    MOSUNNY   92  79  65 CALM      29.97S HX 109
$$

ILZ028>032-037-038-041>044-048-051>054-059>061-282000-
CENTRAL ILLINOIS

CITY           SKY/WX    TMP DP  RH WIND       PRES   REMARKS
PONTIAC        CLOUDY    85  76  74 SW3       29.98F HX  94
BLOOMINGTON    RAIN      77  73  88 N35G49    30.01R VSB 1
DECATUR        PTSUNNY   90  76  63 S7        29.96F HX 101
PEORIA         PTSUNNY   81  72  74 E10       29.97F HX  85
LACON*         CLOUDY    73  70  91 S3        29.97F
LINCOLN*       CLOUDY    92  76  58 S5        29.94F HX 104
SPRINGFIELD    PTSUNNY   93  77  59 W5        29.96S HX 107
TAYLORVILLE    MOSUNNY   88  79  74 CALM      29.97S HX 102
$$

ILZ033-039-045-046-055>057-062-063-282000-
EAST-CENTRAL ILLINOIS

CITY           SKY/WX    TMP DP  RH WIND       PRES   REMARKS
CHAMPAIGN      MOSUNNY   90  75  61 VRB3      29.98F HX 100
DANVILLE*      MOSUNNY   87  74  65 NW5       29.95F HAZE    HX  94
RANTOUL*       PTSUNNY   90  75  62 W5        29.98S HX 100
MATTOON        SUNNY     88  73  61 VRB3      29.97F HX  95
PARIS*         MOSUNNY   90  76  62 SW5       29.98S HX 101
$$

ILZ079-100>102-282000-
SOUTHWEST ILLINOIS

CITY           SKY/WX    TMP DP  RH WIND       PRES   REMARKS
ALTON          MOSUNNY   91  77  62 CALM      29.96F HX 105
BELLEVILLE     MOSUNNY   93  82  69 VRB2      29.94F HX 114
CAHOKIA*       SUNNY     96  75  50 VRB5      29.94F HX 108
SPARTA*        SUNNY     92  78  62 SW5       29.96F HX 106
$$

ILZ064>066-069>071-074>076-080>082-084>086-088>090-092>094-282000-
SOUTH-CENTRAL ILLINOIS

CITY           SKY/WX    TMP DP  RH WIND       PRES   REMARKS
CARBONDALE     SUNNY     92  78  63 CALM      29.96F HX 107
CAIRO*         MOSUNNY   92  79  67 SW6       29.96F HX 109
EFFINGHAM*     MOSUNNY   91  69  48 SW3       29.98F HX  96
MARION         MOSUNNY   93  79  62 SW6       29.97F HX 110
MT. VERNON     PTSUNNY   93  79  62 W3        29.95F HX 110
CENTRALIA*     MOSUNNY   92  76  60 SW3       29.96F HX 104
SALEM*         MOSUNNY   93  75  56 CALM      29.96F HX 104
METROPOLIS*    SUNNY     93  80  66 SW6       29.97F HX 111
$$

ILZ067-068-072-073-078-083-087-091-282000-
SOUTHEAST ILLINOIS

CITY           SKY/WX    TMP DP  RH WIND       PRES   REMARKS
LAWRENCEVILLE  MOSUNNY   90  77  65 S5        29.96F HX 103
FLORA*         MOSUNNY   91  75  59 SW5       29.96F HX 102
FAIRFIELD*     PTSUNNY   89  78  69 S3        29.95S HX 104
HARRISBURG*    MOSUNNY   92  78  62 CALM      29.96F HX 107
ROBINSON*      MOSUNNY   89  77  68 CALM      29.96S HX 101
CARMI*         PTSUNNY   90  73  57 CALM      29.95F HX  98
$$

ABBREVIATIONS USED IN REMARKS
   TC - TEMPERATURE IN CELSIUS
  WCI - WIND CHILL INDEX
   HX - HEAT INDEX
  VSB - VISIBILITY
$$



USA.gov is the U.S. government's official web portal to all federal, state and local government web resources and services.